Simultaneous Nadir Overpasses (SNOs) Predictions

Prediction of SNOs between METOP-B and NOAA-19 Satellite Orbit:

Table of predicted SNOs for the next 14.0 days since TLE Epoch: 10/11/2019
Index Date (METOP-B) Time (METOP-B) Lat,Lon (METOP-B) SZA (METOP-B ) Date (NOAA-19) Time (NOAA-19) Lat,Lon (NOAA-19) SZA (NOAA-19 ) Distance(km) Time Diff (sec)
1 10/12/2019 03:27:04 -79.58, -33.67 92.51 10/12/2019 03:25:49 -79.60, -34.07 92.53 8.61 75
2 10/12/2019 04:17:44 79.58, 133.67 87.51 10/12/2019 04:16:46 79.58, 133.48 87.48 3.70 58
3 10/12/2019 05:08:26 -79.56, -59.13 92.51 10/12/2019 05:07:48 -79.56, -59.06 92.52 1.44 38
4 10/12/2019 05:59:06 79.56, 108.21 87.51 10/12/2019 05:58:46 79.56, 108.20 87.50 0.69 20
5 10/12/2019 06:49:48 -79.55, -84.59 92.50 10/12/2019 06:49:49 -79.56, -84.63 92.49 1.97 1
6 10/12/2019 07:40:28 79.55, 82.75 87.52 10/12/2019 07:40:47 79.56, 82.62 87.53 3.13 19
7 10/12/2019 08:31:10 -79.53,-110.05 92.49 10/12/2019 08:31:49 -79.54,-109.92 92.47 2.74 39
8 10/12/2019 09:21:50 79.53, 57.29 87.52 10/12/2019 09:22:47 79.54, 57.33 87.55 1.41 57
9 10/12/2019 10:12:36 -79.38,-136.58 92.68 10/12/2019 10:13:44 -79.37,-133.81 92.49 56.76 68
10 10/23/2019 03:49:42 79.58, 140.69 91.54 10/23/2019 03:48:36 79.61, 140.65 91.55 3.14 66
11 10/23/2019 04:40:23 -79.60, -51.81 88.42 10/23/2019 04:39:40 -79.58, -51.84 88.45 2.41 43
12 10/23/2019 05:31:03 79.60, 115.50 91.60 10/23/2019 05:30:36 79.59, 115.36 91.57 3.03 27
13 10/23/2019 06:21:45 -79.59, -77.27 88.41 10/23/2019 06:21:41 -79.59, -77.41 88.42 2.91 4
14 10/23/2019 07:12:25 79.58, 90.04 91.60 10/23/2019 07:12:36 79.56, 90.08 91.59 2.08 11
15 10/23/2019 08:03:07 -79.57,-102.73 88.41 10/23/2019 08:03:41 -79.57,-102.70 88.40 0.88 34
16 10/23/2019 08:53:47 79.57, 64.58 91.60 10/23/2019 08:54:37 79.57, 64.50 91.62 1.65 50




NCC Satellite Simultaneous Nadir Overpasses (SNOs) Prediction Service
